Wind_Speed
48 50 54 58 62 68 69 71 71 74 78 79 81 81 82 81 81 78 74 68 62 64 62 62 63 62 64 67 68 71 68 68 71 72 81 88 92 94 92 88 87 82 80 77 79
51 54 56 59 65 72 74 74 75 77 81 84 85 88 89 86 84 79 76 71 66 65 67 64 59 59 63 66 66 64 63 62 70 78 85 94 95 96 94 89 88 79 85 78 74
52 54 59 63 70 76 78 77 77 82 86 89 91 93 92 91 89 85 78 71 68 68 68 64 57 56 57 60 62 60 58 66 72 79 90 96 99 99 97 92 89 82 88 77 76
58 58 63 67 72 77 79 80 83 86 91 94 96 97 96 95 93 88 79 73 70 69 65 60 54 50 51 52 55 55 62 68 70 81 94 103 102 101 100 94 89 85 78 78 61
65 64 66 71 76 81 84 84 88 92 94 97 99 100 99 97 94 89 80 75 69 67 62 54 48 45 45 49 48 53 62 67 71 79 98 104 104 100 99 95 92 88 77 77 60
75 71 74 75 79 86 88 91 94 97 98 100 102 103 103 97 94 88 79 73 70 64 55 43 43 40 39 43 47 57 60 71 72 82 100 107 105 98 102 97 93 91 90 80 68
83 81 81 79 84 90 91 94 99 101 101 101 104 105 105 99 95 88 82 76 71 61 49 35 37 35 37 39 47 56 62 70 75 83 97 105 104 96 97 90 92 91 90 88 83
84 86 85 87 89 93 93 97 101 105 105 106 108 109 106 100 95 88 82 74 68 54 43 31 33 31 33 38 46 54 62 67 77 84 94 105 102 102 99 102 97 96 93 92 88
86 88 87 91 92 97 98 101 105 109 109 111 111 110 106 100 92 85 78 71 60 48 37 27 30 30 32 38 44 53 64 71 82 86 97 103 102 102 98 95 95 97 97 92 88
90 89 91 92 95 99 100 104 108 113 115 113 112 112 105 100 89 84 78 69 50 40 35 25 28 27 30 37 47 56 66 77 82 88 95 99 102 102 97 96 100 100 97 92 92
92 94 95 95 98 102 102 101 105 114 116 113 113 109 108 100 94 86 79 63 49 39 34 26 24 26 29 35 44 55 66 76 82 87 92 94 101 101 96 95 97 98 98 96 93
97 97 98 101 104 106 105 109 110 111 116 116 114 110 109 102 94 84 75 60 49 41 34 26 23 25 29 35 45 53 65 77 84 86 85 91 97 99 99 97 100 102 97 97 95
100 103 104 106 108 110 112 112 115 116 118 118 115 110 109 100 94 85 71 59 51 40 34 25 21 23 28 35 43 52 64 78 83 82 84 90 96 96 95 100 101 96 97 98 96
104 106 110 108 111 113 115 117 118 119 119 119 116 111 110 99 92 82 69 59 51 40 30 24 21 22 27 33 43 53 63 74 80 79 89 90 94 94 94 95 97 99 101 99 97
106 110 112 113 114 115 117 118 121 121 124 118 116 109 107 94 89 83 66 58 50 39 27 21 19 21 24 30 40 52 63 72 74 79 88 88 90 89 92 94 95 94 96 93 92
110 113 116 120 119 119 123 121 123 124 123 121 116 112 104 94 88 83 67 57 48 37 25 18 18 20 23 31 39 49 61 68 74 82 88 88 85 89 87 86 91 96 95 95 94
112 117 118 121 120 121 124 123 125 122 120 119 117 112 103 96 87 81 69 57 47 36 24 17 17 19 21 30 37 47 58 64 72 77 83 85 85 85 83 91 93 95 98 95 94
115 119 121 122 122 121 125 122 124 120 118 117 114 108 100 94 85 81 69 57 46 35 25 16 15 18 20 27 35 43 49 58 63 68 78 83 80 85 88 92 96 99 97 92 88
116 122 123 122 124 122 123 123 120 117 113 114 113 106 100 93 86 81 68 56 45 34 24 16 14 17 18 25 32 39 44 51 60 67 73 77 80 83 87 92 93 93 91 85 84
118 122 124 124 126 124 122 121 121 117 113 111 109 103 101 95 86 80 66 53 44 34 24 16 13 15 17 23 29 37 40 46 54 64 69 76 82 86 89 92 90 89 84 82 84
122 125 126 128 128 126 124 122 121 112 111 107 105 105 98 95 87 78 65 51 42 33 24 16 12 14 17 19 27 32 38 41 51 60 68 72 80 84 85 87 85 84 84 83 83
123 126 128 129 128 126 121 121 119 110 109 106 105 102 98 97 87 76 63 49 39 30 24 17 12 13 15 18 24 30 37 43 51 61 66 68 78 81 82 85 83 85 83 84 85
122 122 127 129 128 125 119 116 117 113 108 107 104 101 97 97 87 73 62 48 38 27 24 18 12 13 16 17 23 30 37 42 48 57 62 68 75 78 82 82 81 84 85 86 85
123 124 128 128 127 121 118 118 117 115 108 104 103 102 100 94 81 72 59 48 37 26 21 17 14 13 16 17 22 28 35 41 46 51 58 65 73 77 80 80 80 85 84 82 85
127 126 128 127 124 121 119 117 118 117 108 105 102 100 100 92 79 70 57 47 37 27 21 17 15 14 15 19 22 29 36 41 47 50 55 65 72 76 79 80 81 83 83 82 81
128 128 126 126 122 119 117 115 118 114 111 108 101 101 99 88 78 68 57 46 36 27 21 16 14 16 15 18 23 30 36 39 44 46 52 61 69 74 78 80 80 81 79 78 78
127 126 124 122 120 117 118 114 114 112 111 104 101 101 96 86 75 64 55 45 36 28 22 17 16 17 17 18 24 31 36 40 41 44 49 57 64 69 75 77 78 80 80 78 77
Wind_Direction
345 344 342 339 338 338 335 335 335 333 332 332 330 329 329 328 332 329 325 316 308 298 292 281 272 266 262 254 250 245 239 232 221 207 206 211 214 217 218 216 219 219 220 214 212
340 342 339 337 337 339 337 337 335 334 333 332 332 330 330 331 331 331 327 318 311 304 295 288 280 271 259 252 249 243 234 226 217 206 205 210 212 214 215 216 217 214 220 216 212
339 338 336 336 337 337 337 336 336 334 334 333 334 330 330 333 332 333 330 320 313 305 299 294 286 273 259 249 243 236 225 219 214 206 204 207 211 212 212 214 215 211 217 215 212
344 338 337 337 337 337 335 335 336 335 334 332 332 329 332 333 333 332 329 321 314 307 303 296 287 271 256 242 238 228 220 214 213 207 204 206 210 210 210 211 212 212 216 211 205
350 344 341 338 338 338 336 336 337 335 333 331 330 330 331 334 333 333 330 322 316 310 306 295 283 266 251 239 228 220 214 212 210 209 205 205 210 209 209 207 210 211 211 214 205
352 348 343 338 336 338 338 337 337 335 333 333 331 331 332 335 334 333 330 323 318 314 306 292 275 262 250 238 225 215 213 208 208 207 206 206 209 205 209 206 208 209 214 211 205
348 347 346 341 338 339 337 337 337 335 333 333 331 332 334 337 335 333 332 327 321 315 305 292 272 262 249 235 221 216 207 208 206 206 208 208 208 206 211 207 206 209 212 214 209
346 345 346 342 341 339 337 338 337 335 333 332 332 333 336 338 337 336 331 328 322 315 306 297 275 262 247 231 220 214 209 206 208 205 207 208 207 207 207 207 205 207 211 212 210
345 344 343 342 340 340 339 337 336 336 334 334 333 334 338 338 338 335 332 330 322 315 308 300 279 262 245 230 219 213 207 203 206 205 205 207 207 208 207 206 207 207 210 210 210
342 343 343 343 341 341 339 337 336 337 335 333 332 335 340 338 338 337 336 332 326 320 313 306 283 265 244 227 214 208 206 203 205 206 206 206 208 207 206 207 208 208 208 208 211
342 341 342 341 342 340 339 336 337 334 333 332 332 334 340 341 340 339 337 334 332 327 315 304 278 257 237 225 217 210 207 204 203 208 208 206 210 207 207 208 210 211 208 209 209
342 341 342 340 341 339 338 337 335 334 334 333 332 335 340 341 340 339 338 337 336 330 316 301 271 251 236 223 212 208 206 207 203 205 207 206 211 208 206 207 210 211 210 209 209
339 340 341 341 340 340 338 336 336 336 335 332 332 337 340 341 341 341 341 338 338 332 317 301 272 246 233 221 214 206 207 208 208 201 205 207 210 209 208 209 211 209 211 211 210
338 338 341 340 339 339 336 336 336 336 335 333 333 337 341 340 342 341 344 341 338 332 317 297 271 245 231 219 210 206 207 209 211 202 206 206 209 208 205 208 212 211 212 211 211
336 337 339 339 339 338 337 336 337 337 335 333 333 338 340 340 343 344 345 342 339 331 317 295 269 247 231 218 211 207 207 209 209 205 208 206 208 207 206 206 210 214 215 212 212
334 335 337 337 338 338 337 336 338 338 336 334 334 337 340 342 344 345 346 344 337 331 318 296 272 248 228 217 209 208 209 209 207 206 206 207 203 207 205 206 210 213 216 214 211
332 334 335 336 337 336 335 336 339 338 335 333 333 338 339 343 345 346 346 342 337 331 323 303 277 255 231 219 209 208 209 209 209 208 204 209 204 204 203 208 209 214 216 214 214
330 333 334 336 335 335 334 336 338 339 336 333 333 339 340 343 346 346 346 341 336 331 324 310 283 259 232 220 210 209 210 209 210 210 206 207 205 204 203 208 211 214 218 215 214
329 332 333 334 334 334 334 336 337 340 337 334 333 338 340 345 346 346 346 339 336 332 327 313 285 262 237 221 209 206 206 209 207 208 206 204 204 206 204 210 212 214 217 217 216
328 330 332 332 333 333 333 336 338 340 338 334 333 337 340 343 345 345 345 338 335 332 329 320 290 263 234 219 205 203 206 205 206 205 204 202 203 206 206 210 212 213 216 216 217
327 329 330 331 331 332 333 335 338 339 338 333 332 337 339 342 344 345 343 338 334 332 331 323 295 263 240 221 200 203 198 203 204 204 205 202 203 207 206 209 213 213 213 215 216
326 327 327 328 329 330 331 334 338 339 337 333 333 337 340 340 343 343 341 337 334 332 330 324 304 272 248 226 203 200 199 201 200 202 203 201 204 207 207 209 208 210 210 213 216
324 325 325 326 327 329 331 335 338 340 337 334 335 337 339 340 340 343 339 337 334 334 326 323 305 267 252 228 208 200 201 199 203 202 200 198 204 206 206 209 207 209 208 211 215
322 324 324 324 325 328 330 335 337 342 336 334 336 337 338 340 340 340 338 335 333 333 325 319 300 268 252 230 213 206 207 202 201 204 199 197 203 204 207 209 207 209 210 208 213
321 321 322 323 323 327 330 334 338 341 336 334 336 336 338 340 339 338 337 332 331 331 325 314 293 271 246 234 217 205 208 203 204 201 200 197 201 203 207 209 207 208 210 210 211
318 319 320 320 322 326 330 334 337 341 337 333 335 335 337 338 338 337 335 331 330 328 323 314 291 271 250 233 217 209 207 208 203 201 199 200 202 203 206 207 210 207 209 210 210
315 316 318 319 322 326 329 334 339 339 336 332 333 334 337 337 336 336 333 329 329 327 324 315 295 274 257 231 220 211 210 205 204 200 201 202 203 204 207 208 209 209 208 211 212
Height
10785 10778 10771 10763 10754 10745 10735 10725 10715 10705 10694 10681 10668 10657 10646 10635 10625 10614 10600 10587 10573 10558 10550 10541 10537 10536 10536 10533 10537 10537 10556 10568 10580 10592 10600 10606 10610 10617 10635 10651 10659 10681 10699 10713 10724
10780 10773 10765 10756 10747 10737 10725 10715 10705 10694 10681 10667 10655 10641 10629 10617 10606 10592 10577 10558 10547 10533 10521 10516 10513 10510 10508 10507 10514 10521 10539 10549 10556 10565 10579 10584 10592 10603 10618 10635 10651 10679 10679 10701 10715
10775 10767 10758 10749 10739 10727 10716 10707 10696 10682 10667 10653 10641 10625 10613 10600 10588 10573 10556 10538 10521 10508 10498 10491 10487 10483 10481 10486 10490 10503 10520 10522 10529 10546 10558 10566 10572 10584 10602 10624 10640 10662 10666 10688 10704
10768 10759 10750 10741 10732 10720 10708 10695 10685 10670 10655 10640 10626 10608 10595 10584 10567 10552 10534 10516 10501 10485 10475 10467 10462 10459 10459 10463 10471 10484 10490 10499 10512 10527 10537 10541 10553 10569 10586 10610 10630 10648 10653 10671 10693
10764 10754 10744 10732 10721 10711 10698 10685 10673 10658 10642 10626 10609 10592 10579 10565 10548 10532 10514 10497 10481 10464 10453 10444 10440 10437 10438 10442 10454 10463 10470 10482 10495 10511 10519 10526 10536 10559 10575 10598 10616 10633 10643 10661 10677
10759 10748 10737 10724 10711 10699 10686 10672 10659 10642 10627 10610 10591 10577 10562 10548 10528 10510 10493 10474 10458 10443 10432 10425 10420 10418 10421 10428 10438 10441 10456 10464 10479 10494 10502 10510 10522 10549 10558 10582 10604 10619 10632 10649 10664
10752 10742 10730 10716 10701 10688 10674 10659 10645 10628 10610 10595 10577 10560 10543 10528 10508 10487 10468 10451 10435 10422 10413 10408 10402 10402 10405 10413 10420 10428 10438 10451 10465 10477 10490 10502 10517 10547 10550 10579 10594 10607 10618 10633 10651
10746 10733 10722 10708 10692 10679 10662 10647 10633 10614 10596 10579 10561 10542 10526 10508 10489 10468 10451 10434 10416 10405 10396 10392 10386 10388 10392 10399 10405 10415 10426 10442 10451 10460 10474 10486 10509 10520 10534 10551 10574 10590 10602 10618 10640
10739 10727 10715 10701 10686 10670 10652 10634 10618 10601 10581 10561 10542 10528 10510 10492 10474 10457 10437 10420 10402 10389 10383 10379 10373 10375 10379 10387 10395 10405 10413 10426 10433 10447 10456 10472 10494 10509 10528 10546 10564 10577 10588 10606 10627
10729 10718 10706 10694 10678 10663 10646 10622 10603 10583 10562 10548 10529 10513 10500 10480 10460 10441 10420 10403 10388 10375 10369 10367 10364 10366 10369 10375 10382 10390 10401 10408 10421 10432 10446 10464 10478 10498 10518 10534 10548 10561 10578 10597 10612
10720 10708 10695 10683 10670 10654 10640 10625 10605 10576 10556 10539 10519 10501 10483 10466 10440 10421 10403 10387 10374 10364 10358 10356 10355 10355 10358 10365 10374 10381 10387 10398 10409 10420 10439 10457 10465 10490 10507 10521 10537 10551 10566 10582 10597
10711 10699 10687 10671 10659 10643 10628 10608 10591 10577 10546 10522 10502 10484 10468 10451 10428 10410 10392 10375 10364 10354 10349 10346 10345 10346 10350 10355 10361 10371 10380 10387 10391 10409 10433 10448 10457 10477 10492 10508 10520 10536 10556 10570 10583
10704 10689 10676 10662 10645 10629 10611 10596 10576 10556 10534 10510 10490 10472 10456 10437 10416 10394 10379 10365 10353 10346 10339 10337 10337 10338 10341 10345 10354 10361 10367 10374 10383 10408 10423 10435 10445 10469 10486 10495 10507 10529 10543 10560 10573
10694 10681 10668 10654 10640 10623 10602 10580 10560 10542 10520 10497 10476 10461 10441 10425 10406 10387 10370 10356 10345 10338 10332 10328 10328 10329 10332 10337 10345 10351 10357 10367 10378 10403 10404 10422 10434 10456 10473 10490 10502 10516 10528 10548 10566
10684 10670 10658 10642 10630 10612 10593 10571 10550 10530 10505 10489 10464 10450 10439 10418 10396 10377 10362 10347 10338 10331 10326 10322 10320 10321 10326 10330 10336 10341 10345 10355 10375 10391 10396 10414 10429 10451 10462 10477 10495 10510 10522 10544 10561
10674 10662 10647 10629 10615 10598 10578 10559 10541 10521 10492 10472 10457 10437 10422 10405 10386 10366 10352 10342 10332 10326 10321 10316 10314 10314 10319 10321 10327 10333 10339 10349 10363 10375 10390 10404 10424 10433 10460 10483 10486 10495 10510 10528 10549
10663 10651 10637 10622 10607 10589 10568 10550 10530 10509 10485 10463 10445 10431 10412 10396 10376 10360 10344 10334 10326 10320 10315 10312 10309 10309 10312 10314 10320 10325 10331 10343 10352 10367 10389 10399 10416 10435 10456 10458 10471 10480 10492 10515 10531
10651 10640 10624 10611 10596 10579 10559 10537 10520 10499 10473 10456 10436 10424 10407 10387 10371 10353 10338 10327 10320 10314 10309 10306 10304 10303 10305 10309 10315 10318 10328 10338 10352 10367 10381 10391 10415 10424 10437 10448 10457 10465 10484 10509 10530
10640 10628 10613 10599 10585 10568 10548 10530 10515 10493 10473 10445 10422 10409 10394 10380 10363 10348 10333 10321 10314 10308 10304 10301 10298 10298 10301 10303 10308 10314 10321 10332 10343 10355 10370 10392 10403 10417 10429 10436 10446 10466 10485 10504 10519
10630 10618 10605 10590 10575 10557 10539 10522 10502 10483 10460 10436 10417 10404 10385 10371 10356 10342 10329 10317 10309 10303 10299 10297 10294 10293 10295 10297 10303 10307 10316 10325 10337 10348 10363 10377 10387 10398 10412 10423 10439 10458 10478 10492 10502
10618 10607 10593 10577 10563 10546 10526 10510 10492 10473 10455 10431 10411 10395 10380 10365 10351 10336 10324 10314 10305 10298 10294 10292 10290 10289 10290 10294 10297 10303 10309 10320 10329 10340 10352 10367 10381 10390 10407 10422 10437 10454 10469 10480 10492
10608 10594 10581 10568 10554 10538 10521 10503 10486 10466 10446 10423 10403 10389 10373 10354 10345 10331 10319 10309 10302 10295 10289 10288 10286 10285 10286 10289 10293 10297 10303 10311 10318 10328 10342 10361 10371 10385 10399 10411 10433 10447 10462 10472 10483
10602 10588 10574 10557 10541 10525 10510 10494 10477 10458 10436 10413 10396 10378 10367 10352 10334 10327 10313 10304 10297 10291 10284 10283 10282 10281 10280 10285 10289 10292 10297 10304 10313 10322 10336 10351 10362 10378 10389 10404 10425 10438 10448 10460 10475
10590 10577 10565 10548 10532 10515 10497 10479 10464 10449 10429 10410 10390 10371 10356 10348 10333 10319 10310 10299 10292 10287 10281 10278 10278 10277 10277 10280 10284 10289 10294 10301 10308 10320 10331 10346 10354 10369 10381 10396 10415 10426 10439 10456 10466
10576 10566 10550 10532 10517 10501 10487 10472 10458 10439 10419 10396 10382 10367 10354 10337 10326 10313 10304 10294 10288 10282 10278 10275 10273 10272 10273 10275 10280 10284 10287 10295 10301 10312 10326 10336 10346 10359 10372 10387 10403 10417 10431 10447 10460
10562 10550 10537 10520 10506 10491 10475 10461 10447 10431 10409 10389 10374 10359 10347 10333 10318 10306 10297 10289 10282 10277 10273 10270 10268 10266 10268 10270 10274 10279 10282 10289 10299 10310 10321 10331 10341 10354 10365 10378 10393 10409 10424 10437 10451
10547 10538 10524 10505 10490 10477 10465 10451 10440 10422 10403 10384 10366 10353 10339 10326 10313 10300 10291 10283 10277 10271 10267 10264 10262 10261 10262 10265 10268 10272 10278 10284 10294 10305 10314 10325 10336 10349 10361 10373 10385 10398 10413 10426 10441